Change the Weather History Date:

Monday, November 12, 2012

  Actual Average (PACD) Record (PACD)
Temperature  
Mean Temperature 36 °F 35 °F  
Max Temperature 46 °F 40 °F 48 °F (1959)
Min Temperature 28 °F 30 °F 12 °F (1963)
Degree Days  
Heating Degree Days 28 30  
Month to date heating degree days 350  
Since 1 July heating degree days 2463  
Cooling Degree Days 0    
Month to date cooling degree days  
Year to date cooling degree days  
Moisture  
Dew Point 35 °F    
Average Humidity 92    
Maximum Humidity 100    
Minimum Humidity 81    
Precipitation  
Precipitation 1.73 in 0.16 in 3.78 in (2000)
Month to date precipitation 1.90  
Year to date precipitation 34.13  
Snow  
Snow 0.00 in 0.30 in 1.60 in (1977)
Month to date snowfall 3.2  
Since 1 July snowfall 5.6  
Since 1 September snowfall 5.6  
Snow Depth -    
Sea Level Pressure  
Sea Level Pressure 30.12 in    
Wind  
Wind Speed 10 mph (SSE)    
Max Wind Speed 26 mph    
Max Gust Speed 47 mph    
Visibility 8 miles    
Events Rain    
T = Trace of Precipitation, MM = Missing Value Source: NWS Daily Summary

Daily Weather History Graph

Daily Weather History Graph

Search for Another Location

Airport or City:

Trip Planner

Search our weather history database for the weather conditions in past years. The results will help you decide how hot, cold, wet, or windy it might be!

Date:

Astronomy

Nov. 12, 2012 Rise Set
Actual Time 8:20 AM HAST 4:54 PM HAST
Civil Twilight 7:40 AM HAST 5:34 PM HAST
Nautical Twilight 6:56 AM HAST 6:18 PM HAST
Astronomical Twilight 6:13 AM HAST 7:01 PM HAST
Moon 6:54 AM HAST (11/12) 4:11 PM HAST (11/12)
Length of Visible Light 9h 54m
Length of Day
8h 33m
Waning Crescent, 2% of the Moon is Illuminated
Nov 12
Waning Crescent
Nov 13
New
Nov 20
First Quarter
Nov 28
Full
Dec 6
Last Quarter

Hourly Weather History & Observations

Time (HAST) Temp. Windchill Dew Point Humidity Pressure Visibility Wind Dir Wind Speed Gust Speed Precip Events Conditions
12:01 AM 36.0 °F 28.5 °F 30.9 °F 82% 30.41 in 10.0 mi WNW 10.4 mph - N/A   Partly Cloudy
1:01 AM 30.9 °F - 28.9 °F 92% 30.41 in 10.0 mi Calm Calm - N/A   Partly Cloudy
1:27 AM 30.2 °F 25.4 °F 28.4 °F 93% 30.12 in 10.0 mi SSW 4.6 mph - N/A   Mostly Cloudy
2:01 AM 30.2 °F 26.7 °F 28.4 °F 93% 30.12 in 9.0 mi Variable 3.5 mph - N/A   Scattered Clouds
2:12 AM 30.2 °F 26.7 °F 28.4 °F 93% 30.11 in 9.0 mi SSW 3.5 mph - N/A   Mostly Cloudy
2:21 AM 30.2 °F 25.4 °F 28.4 °F 93% 30.11 in 6.0 mi SSW 4.6 mph - N/A   Mostly Cloudy
2:34 AM 30.9 °F 26.2 °F 28.9 °F 92% 30.40 in 9.0 mi SW 4.6 mph - N/A   Overcast
3:01 AM 30.9 °F 25.2 °F 28.9 °F 92% 30.40 in 7.0 mi SSW 5.8 mph - N/A   Mostly Cloudy
3:24 AM 28.4 °F 22.2 °F 28.4 °F 100% 30.11 in 10.0 mi South 5.8 mph - N/A   Mostly Cloudy
3:34 AM 28.4 °F 23.3 °F 26.6 °F 93% 30.12 in 10.0 mi SW 4.6 mph - N/A   Scattered Clouds
4:01 AM 28.0 °F 21.7 °F 27.0 °F 96% 30.40 in 10.0 mi SSW 5.8 mph - N/A   Clear
5:01 AM 28.0 °F 21.7 °F 28.0 °F 100% 30.39 in 10.0 mi SE 5.8 mph - N/A   Clear
6:01 AM 34.0 °F 28.8 °F 33.1 °F 96% 30.38 in 10.0 mi Variable 5.8 mph - N/A   Clear
6:29 AM 35.6 °F 29.2 °F 33.8 °F 93% 30.08 in 10.0 mi SE 8.1 mph 17.3 mph N/A   Mostly Cloudy
6:42 AM 35.6 °F 28.0 °F 33.8 °F 93% 30.08 in 10.0 mi ESE 10.4 mph 19.6 mph N/A   Mostly Cloudy
7:01 AM 36.0 °F 28.0 °F 34.0 °F 93% 30.36 in 10.0 mi ESE 11.5 mph 17.3 mph N/A   Mostly Cloudy
7:53 AM 35.6 °F 25.5 °F 33.8 °F 93% 30.06 in 10.0 mi SE 17.3 mph 24.2 mph N/A   Scattered Clouds
8:01 AM 35.1 °F 25.2 °F 33.1 °F 92% 30.35 in 10.0 mi SE 16.1 mph 26.5 mph N/A   Partly Cloudy
9:01 AM 37.9 °F 27.9 °F 34.0 °F 86% 30.33 in 10.0 mi SE 19.6 mph 28.8 mph N/A   Clear
9:17 AM 37.4 °F 27.2 °F 33.8 °F 87% 30.05 in 10.0 mi SSE 19.6 mph 26.5 mph N/A   Mostly Cloudy
10:01 AM 39.0 °F 32.8 °F 34.0 °F 82% 30.32 in 10.0 mi SE 9.2 mph 19.6 mph N/A   Overcast
10:49 AM 39.2 °F 31.2 °F 33.8 °F 81% 30.03 in 10.0 mi SE 13.8 mph 21.9 mph N/A   Overcast
11:01 AM 39.0 °F 33.4 °F 34.0 °F 82% 30.32 in 10.0 mi SE 8.1 mph 18.4 mph N/A   Overcast
11:38 AM 39.2 °F 30.8 °F 33.8 °F 81% 30.01 in 10.0 mi ESE 15.0 mph 25.3 mph N/A   Overcast
12:01 PM 39.0 °F 29.0 °F 34.0 °F 82% 30.31 in 10.0 mi SE 20.7 mph 32.2 mph N/A   Overcast
1:01 PM 39.0 °F 29.9 °F 35.1 °F 86% 30.28 in 10.0 mi SSE 17.3 mph 32.2 mph N/A   Overcast
2:01 PM 39.9 °F 31.8 °F 36.0 °F 86% 30.26 in 9.0 mi SE 15.0 mph 23.0 mph 0.00 in Rain Light Rain
2:39 PM 39.2 °F 29.0 °F 37.4 °F 93% 29.93 in 9.0 mi SE 21.9 mph 31.1 mph 0.00 in   Overcast
2:47 PM 39.2 °F 29.0 °F 37.4 °F 93% 29.93 in 8.0 mi SE 21.9 mph 31.1 mph 0.00 in   Overcast
3:01 PM 39.9 °F 32.1 °F 37.9 °F 93% 30.19 in 9.0 mi SE 13.8 mph 25.3 mph 0.00 in Rain Light Rain
4:01 PM 41.0 °F 33.1 °F 37.9 °F 89% 30.16 in 10.0 mi ESE 15.0 mph 27.6 mph 0.00 in   Overcast
4:50 PM 41.0 °F 31.4 °F 39.2 °F 93% 29.84 in 9.0 mi ESE 21.9 mph 31.1 mph 0.00 in Rain Light Rain
5:01 PM 41.0 °F 31.9 °F 39.0 °F 93% 30.12 in 7.0 mi ESE 19.6 mph 27.6 mph 0.01 in Rain Light Rain
6:01 PM 41.0 °F 32.8 °F 39.9 °F 96% 30.08 in 5.0 mi SE 16.1 mph 25.3 mph 0.15 in Rain Heavy Rain
7:01 PM 42.1 °F 35.2 °F 41.0 °F 96% 30.04 in 5.0 mi SE 12.7 mph 26.5 mph 0.38 in Rain Rain
7:51 PM 42.8 °F 38.0 °F 42.8 °F 100% 29.73 in 2.5 mi SSE 8.1 mph - 0.29 in Rain Light Rain
8:01 PM 42.8 °F 35.4 °F 42.8 °F 100% 29.72 in 3.0 mi SSE 15.0 mph 27.6 mph 0.35 in Rain Light Rain
8:40 PM 44.6 °F 38.4 °F 42.8 °F 93% 29.68 in 2.5 mi SE 12.7 mph 19.6 mph 0.55 in Rain Light Rain
9:01 PM 44.6 °F 37.2 °F 42.8 °F 93% 29.66 in 4.0 mi SE 17.3 mph 25.3 mph 0.66 in Rain Rain
10:01 PM 45.0 °F 35.8 °F 44.1 °F 97% 29.87 in 3.0 mi SSE 26.5 mph 47.2 mph 0.88 in Rain Rain
11:01 PM 46.0 °F 37.6 °F 44.1 °F 93% 29.84 in 4.0 mi SSE 24.2 mph 44.9 mph 0.31 in Rain Rain